,,PA_Meas_PMT16A,,PR_Meas_QMR101_102,,RH_Meas_QMH101,,SR_Meas_QMS101,,TA_Meas_QMH101,,GenWind,,GenWind,
time,status,PA,status,PR,status,RH,status,SR,status,TA,status,DirAvg,status,SpdAvg,
2014-01-20, 00:00:04,VALID,920.188,VALID,0,VALID,88.8433,VALID,0,VALID,18.6903,VALID,141,VALID,1.85469,
2014-01-20, 00:01:04,VALID,920.191,VALID,0,VALID,88.8967,VALID,0,VALID,18.6513,VALID,151,VALID,0.994141,
2014-01-20, 00:02:04,VALID,920.19,VALID,0,VALID,89.0339,VALID,0,VALID,18.6513,VALID,183,VALID,0.616797,
2014-01-20, 00:03:04,VALID,920.189,VALID,0,VALID,88.9958,VALID,0,VALID,18.6319,VALID,150,VALID,0.936719,
2014-01-20, 00:04:04,VALID,920.21,VALID,0,VALID,89.0796,VALID,0,VALID,18.5929,VALID,158,VALID,0.798437,
2014-01-20, 00:05:04,VALID,920.186,VALID,0,VALID,89.2016,VALID,0,VALID,18.5943,VALID,141,VALID,1.11875,
2014-01-20, 00:06:04,VALID,920.208,VALID,0,VALID,89.3312,VALID,0,VALID,18.5734,VALID,136,VALID,0.850391,
2014-01-20, 00:07:04,VALID,920.204,VALID,0,VALID,89.476,VALID,0,VALID,18.5149,VALID,154,VALID,0.812109,
2014-01-20, 00:08:04,VALID,920.195,VALID,0,VALID,89.6742,VALID,0,VALID,18.5344,VALID,125,VALID,1.43906,
2014-01-20, 00:09:04,VALID,920.184,VALID,0,VALID,89.8191,VALID,0,VALID,18.4759,VALID,149,VALID,1.46797,
2014-01-20, 00:10:04,VALID,920.219,VALID,0,VALID,89.842,VALID,0,VALID,18.4564,VALID,127,VALID,0.660937,
2014-01-20, 00:11:04,VALID,920.216,VALID,0,VALID,89.6437,VALID,0,VALID,18.4759,VALID,141,VALID,0.695703,
2014-01-20, 00:12:04,VALID,920.216,VALID,0,VALID,89.4227,VALID,0,VALID,18.5149,VALID,148,VALID,1.08359,
2014-01-20, 00:13:04,VALID,920.221,VALID,0,VALID,89.2626,VALID,0,VALID,18.5539,VALID,174,VALID,0.449609,
2014-01-20, 00:14:04,VALID,920.224,VALID,0,VALID,89.1863,VALID,0,VALID,18.5748,VALID,153,VALID,0.736328,
2014-01-20, 00:15:04,VALID,920.203,VALID,0,VALID,89.2168,VALID,0,VALID,18.5149,VALID,177,VALID,0.683984,
2014-01-20, 00:16:04,VALID,920.197,VALID,0,VALID,89.3236,VALID,0,VALID,18.5358,VALID,171,VALID,0.877344,
2014-01-20, 00:17:04,VALID,920.224,VALID,0,VALID,89.3846,VALID,0,VALID,18.5358,VALID,180,VALID,0,
2014-01-20, 00:18:04,VALID,920.234,VALID,0,VALID,89.4455,VALID,0,VALID,18.4968,VALID,181,VALID,0.609766,
2014-01-20, 00:19:04,VALID,920.23,VALID,0,VALID,89.598,VALID,0,VALID,18.4564,VALID,172,VALID,0.512109,
2014-01-20, 00:20:04,VALID,920.222,VALID,0,VALID,89.6514,VALID,0,VALID,18.4564,VALID,171,VALID,0.674609,
2014-01-20, 00:21:04,VALID,920.231,VALID,0,VALID,89.6895,VALID,0,VALID,18.4578,VALID,159,VALID,1.10156,
2014-01-20, 00:22:04,VALID,920.192,VALID,0,VALID,89.6056,VALID,0,VALID,18.4383,VALID,156,VALID,0.665625,
2014-01-20, 00:23:04,VALID,920.169,VALID,0,VALID,89.5751,VALID,0,VALID,18.4174,VALID,155,VALID,0.46875,
2014-01-20, 00:24:04,VALID,920.194,VALID,0,VALID,89.5828,VALID,0,VALID,18.4174,VALID,162,VALID,0.290234,
2014-01-20, 00:25:04,VALID,920.138,VALID,0,VALID,89.5599,VALID,0,VALID,18.4383,VALID,161,VALID,0.404687,
2014-01-20, 00:26:04,VALID,920.163,VALID,0,VALID,89.5599,VALID,0,VALID,18.4383,VALID,144,VALID,0.690625,
2014-01-20, 00:27:04,VALID,920.136,VALID,0,VALID,89.6056,VALID,0,VALID,18.3784,VALID,144,VALID,0.283203,
2014-01-20, 00:28:04,VALID,920.146,VALID,0,VALID,89.6361,VALID,0,VALID,18.3589,VALID,142,VALID,0.380859,
2014-01-20, 00:29:04,VALID,920.138,VALID,0,VALID,89.7047,VALID,0,VALID,18.3798,VALID,133,VALID,1.0418,
2014-01-20, 00:30:04,VALID,920.122,VALID,0,VALID,89.598,VALID,0,VALID,18.3603,VALID,142,VALID,0.809375,
2014-01-20, 00:31:04,VALID,920.107,VALID,0,VALID,89.5142,VALID,0,VALID,18.3603,VALID,136,VALID,1.12461,
2014-01-20, 00:32:04,VALID,920.098,VALID,0,VALID,89.3846,VALID,0,VALID,18.3603,VALID,122,VALID,0.688672,
2014-01-20, 00:33:04,VALID,920.109,VALID,0,VALID,89.3236,VALID,0,VALID,18.3589,VALID,149,VALID,0.642187,
2014-01-20, 00:34:04,VALID,920.081,VALID,0,VALID,89.2702,VALID,0,VALID,18.3784,VALID,148,VALID,0.334766,
2014-01-20, 00:35:04,VALID,920.082,VALID,0,VALID,89.1711,VALID,0,VALID,18.3784,VALID,146,VALID,0.380469,
2014-01-20, 00:36:04,VALID,920.054,VALID,0,VALID,89.2016,VALID,0,VALID,18.3798,VALID,154,VALID,0.626953,
2014-01-20, 00:37:04,VALID,920.041,VALID,0,VALID,89.3007,VALID,0,VALID,18.3408,VALID,156,VALID,0.561328,
2014-01-20, 00:38:04,VALID,920.032,VALID,0,VALID,89.4303,VALID,0,VALID,18.3603,VALID,156,VALID,0.550391,
2014-01-20, 00:39:04,VALID,920.033,VALID,0,VALID,89.537,VALID,0,VALID,18.3408,VALID,155,VALID,0.226172,
2014-01-20, 00:40:04,VALID,920.019,VALID,0,VALID,89.6209,VALID,0,VALID,18.3213,VALID,167,VALID,1.18984,
2014-01-20, 00:41:04,VALID,920.049,VALID,0,VALID,89.8038,VALID,0,VALID,18.3004,VALID,166,VALID,1.48672,
2014-01-20, 00:42:04,VALID,920.074,VALID,0,VALID,89.9182,VALID,0,VALID,18.2809,VALID,170,VALID,0.648828,
2014-01-20, 00:43:04,VALID,920.044,VALID,0,VALID,90.1316,VALID,0,VALID,18.2628,VALID,174,VALID,1.23633,
2014-01-20, 00:44:04,VALID,920.041,VALID,0,VALID,90.3527,VALID,0,VALID,18.1835,VALID,174,VALID,0.741016,
2014-01-20, 00:45:04,VALID,920.03,VALID,0,VALID,90.5509,VALID,0,VALID,18.1849,VALID,172,VALID,1.32461,
2014-01-20, 00:46:04,VALID,920.011,VALID,0,VALID,90.7263,VALID,0,VALID,18.1264,VALID,179,VALID,1.51484,
2014-01-20, 00:47:04,VALID,919.974,VALID,0,VALID,90.8787,VALID,0,VALID,18.1264,VALID,157,VALID,0.717969,
2014-01-20, 00:48:04,VALID,919.954,VALID,0,VALID,90.9855,VALID,0,VALID,18.0665,VALID,152,VALID,0.930859,
2014-01-20, 00:49:04,VALID,919.936,VALID,0,VALID,90.9397,VALID,0,VALID,18.047,VALID,145,VALID,1.05,
2014-01-20, 00:50:04,VALID,919.952,VALID,0,VALID,90.7034,VALID,0,VALID,18.0874,VALID,141,VALID,1.47109,
2014-01-20, 00:51:04,VALID,919.94,VALID,0,VALID,90.2231,VALID,0,VALID,18.1264,VALID,118,VALID,0.899609,
2014-01-20, 00:52:04,VALID,919.951,VALID,0,VALID,89.9639,VALID,0,VALID,18.125,VALID,145,VALID,1.125,
2014-01-20, 00:53:04,VALID,919.95,VALID,0,VALID,89.7886,VALID,0,VALID,18.1654,VALID,158,VALID,0.519531,
2014-01-20, 00:54:04,VALID,919.931,VALID,0,VALID,89.6971,VALID,0,VALID,18.1445,VALID,158,VALID,0.282813,
2014-01-20, 00:55:04,VALID,919.975,VALID,0,VALID,89.8648,VALID,0,VALID,18.125,VALID,158,VALID,0.623438,
2014-01-20, 00:56:04,VALID,919.939,VALID,0,VALID,90.1621,VALID,0,VALID,18.1264,VALID,177,VALID,0.73125,
2014-01-20, 00:57:04,VALID,919.914,VALID,0,VALID,90.3527,VALID,0,VALID,18.1459,VALID,173,VALID,0.829687,
2014-01-20, 00:58:04,VALID,919.897,VALID,0,VALID,90.4442,VALID,0,VALID,18.125,VALID,184,VALID,0.476953,
2014-01-20, 00:59:04,VALID,919.897,VALID,0,VALID,90.5052,VALID,0,VALID,18.1264,VALID,184,VALID,0.288672,
2014-01-20, 01:00:04,VALID,919.877,VALID,0,VALID,90.6729,VALID,0,VALID,18.1055,VALID,153,VALID,0.603516,
2014-01-20, 01:01:04,VALID,919.847,VALID,0,VALID,90.7339,VALID,0,VALID,18.0665,VALID,146,VALID,0.755078,
2014-01-20, 01:02:04,VALID,919.834,VALID,0,VALID,90.8559,VALID,0,VALID,18.0874,VALID,154,VALID,0.842578,
2014-01-20, 01:03:04,VALID,919.805,VALID,0,VALID,90.6424,VALID,0,VALID,18.047,VALID,137,VALID,0.958984,
2014-01-20, 01:04:04,VALID,919.808,VALID,0,VALID,90.3375,VALID,0,VALID,18.1069,VALID,140,VALID,1.0125,
2014-01-20, 01:05:04,VALID,919.78,VALID,0,VALID,90.0935,VALID,0,VALID,18.1055,VALID,144,VALID,1.33945,
2014-01-20, 01:06:04,VALID,919.769,VALID,0,VALID,90.0325,VALID,0,VALID,18.1459,VALID,163,VALID,1.78984,
2014-01-20, 01:07:04,VALID,919.725,VALID,0,VALID,89.6895,VALID,0,VALID,18.203,VALID,146,VALID,1.46758,
2014-01-20, 01:08:04,VALID,919.732,VALID,0,VALID,89.476,VALID,0,VALID,18.2225,VALID,145,VALID,1.18438,
2014-01-20, 01:09:04,VALID,919.689,VALID,0,VALID,89.4608,VALID,0,VALID,18.2433,VALID,148,VALID,0.981641,
2014-01-20, 01:10:04,VALID,919.705,VALID,0,VALID,89.3998,VALID,0,VALID,18.2225,VALID,152,VALID,0.980859,
2014-01-20, 01:11:04,VALID,919.714,VALID,0,VALID,89.2245,VALID,0,VALID,18.2225,VALID,130,VALID,1.38281,
2014-01-20, 01:12:04,VALID,919.718,VALID,0,VALID,89.072,VALID,0,VALID,18.203,VALID,134,VALID,1.55781,
2014-01-20, 01:13:04,VALID,919.7,VALID,0,VALID,88.9271,VALID,0,VALID,18.2225,VALID,135,VALID,1.09336,
2014-01-20, 01:14:04,VALID,919.671,VALID,0,VALID,88.7823,VALID,0,VALID,18.242,VALID,134,VALID,1.02109,
2014-01-20, 01:15:04,VALID,919.668,VALID,0,VALID,88.6222,VALID,0,VALID,18.242,VALID,141,VALID,1.96406,
2014-01-20, 01:16:04,VALID,919.672,VALID,0,VALID,88.4621,VALID,0.107441,VALID,18.2809,VALID,153,VALID,1.50508,
2014-01-20, 01:17:04,VALID,919.688,VALID,0,VALID,88.4011,VALID,0,VALID,18.2809,VALID,155,VALID,1.47656,
2014-01-20, 01:18:04,VALID,919.693,VALID,0,VALID,88.241,VALID,0,VALID,18.3394,VALID,161,VALID,1.47305,
2014-01-20, 01:19:04,VALID,919.711,VALID,0,VALID,88.2563,VALID,0,VALID,18.3394,VALID,150,VALID,1.41562,
2014-01-20, 01:20:04,VALID,919.716,VALID,0,VALID,88.4469,VALID,0,VALID,18.3394,VALID,153,VALID,1.0375,
2014-01-20, 01:21:04,VALID,919.705,VALID,0,VALID,88.6984,VALID,0,VALID,18.3199,VALID,158,VALID,1.16836,
2014-01-20, 01:22:04,VALID,919.701,VALID,0,VALID,88.8814,VALID,0,VALID,18.2809,VALID,155,VALID,1.50977,
2014-01-20, 01:23:04,VALID,919.66,VALID,0,VALID,88.9043,VALID,0,VALID,18.2615,VALID,139,VALID,1.32617,
2014-01-20, 01:24:04,VALID,919.606,VALID,0,VALID,88.9881,VALID,0,VALID,18.2809,VALID,147,VALID,1.41172,
2014-01-20, 01:25:04,VALID,919.605,VALID,0,VALID,88.8967,VALID,0,VALID,18.2809,VALID,144,VALID,1.73242,
2014-01-20, 01:26:04,VALID,919.612,VALID,0,VALID,88.6222,VALID,0,VALID,18.3004,VALID,150,VALID,1.75391,
2014-01-20, 01:27:04,VALID,919.594,VALID,0,VALID,88.2944,VALID,0,VALID,18.3199,VALID,133,VALID,1.32695,
2014-01-20, 01:28:04,VALID,919.585,VALID,0,VALID,88.1191,VALID,0,VALID,18.3199,VALID,129,VALID,1.19258,
2014-01-20, 01:29:04,VALID,919.579,VALID,0,VALID,88.0657,VALID,0,VALID,18.3199,VALID,171,VALID,0.637109,
2014-01-20, 01:30:04,VALID,919.549,VALID,0,VALID,87.9895,VALID,0,VALID,18.3199,VALID,144,VALID,1.04766,
2014-01-20, 01:31:04,VALID,919.536,VALID,0,VALID,87.9361,VALID,0,VALID,18.3589,VALID,142,VALID,1.3832,
2014-01-20, 01:32:04,VALID,919.517,VALID,0,VALID,87.9437,VALID,0,VALID,18.3784,VALID,158,VALID,1.18711,
2014-01-20, 01:33:04,VALID,919.498,VALID,0,VALID,87.898,VALID,0,VALID,18.3979,VALID,153,VALID,1.44297,
2014-01-20, 01:34:04,VALID,919.491,VALID,0,VALID,87.7379,VALID,0,VALID,18.4174,VALID,156,VALID,1.66875,
2014-01-20, 01:35:04,VALID,919.484,VALID,0,VALID,87.7226,VALID,0,VALID,18.4369,VALID,159,VALID,0.694922,
2014-01-20, 01:36:04,VALID,919.485,VALID,0,VALID,87.8751,VALID,0,VALID,18.4369,VALID,176,VALID,1.27422,
2014-01-20, 01:37:04,VALID,919.496,VALID,0,VALID,87.9742,VALID,0,VALID,18.3979,VALID,193,VALID,1.26094,
2014-01-20, 01:38:04,VALID,919.495,VALID,0,VALID,88.2258,VALID,0,VALID,18.3784,VALID,195,VALID,1.09844,
2014-01-20, 01:39:04,VALID,919.507,VALID,0,VALID,88.3859,VALID,0,VALID,18.3394,VALID,165,VALID,0.369531,
2014-01-20, 01:40:04,VALID,919.513,VALID,0,VALID,88.5384,VALID,0,VALID,18.3004,VALID,188,VALID,0.417188,
2014-01-20, 01:41:04,VALID,919.516,VALID,0,VALID,88.8204,VALID,0,VALID,18.2809,VALID,188,VALID,0.653516,
2014-01-20, 01:42:04,VALID,919.498,VALID,0,VALID,89.0949,VALID,0,VALID,18.203,VALID,188,VALID,0.175391,
2014-01-20, 01:43:04,VALID,919.481,VALID,0,VALID,89.3236,VALID,0,VALID,18.1835,VALID,188,VALID,0.0121094,
2014-01-20, 01:44:04,VALID,919.465,VALID,0,VALID,89.4379,VALID,0,VALID,18.125,VALID,188,VALID,0.509375,
2014-01-20, 01:45:04,VALID,919.48,VALID,0,VALID,89.5675,VALID,0,VALID,18.0275,VALID,188,VALID,0.600391,
2014-01-20, 01:46:04,VALID,919.469,VALID,0,VALID,90.1088,VALID,0,VALID,17.9301,VALID,188,VALID,0.233203,
2014-01-20, 01:47:04,VALID,919.473,VALID,0,VALID,90.3375,VALID,0,VALID,17.8521,VALID,188,VALID,0.0875,
2014-01-20, 01:48:04,VALID,919.45,VALID,0,VALID,90.8178,VALID,0,VALID,17.7936,VALID,188,VALID,0.231641,
2014-01-20, 01:49:04,VALID,919.438,VALID,0,VALID,91.2218,VALID,0,VALID,17.7936,VALID,188,VALID,0.101172,
2014-01-20, 01:50:04,VALID,919.436,VALID,0,VALID,91.4048,VALID,0,VALID,17.7547,VALID,188,VALID,0.122266,
2014-01-20, 01:51:04,VALID,919.428,VALID,0,VALID,91.5191,VALID,0,VALID,17.7755,VALID,152,VALID,0.290234,
2014-01-20, 01:52:04,VALID,919.412,VALID,0,VALID,91.5191,VALID,0,VALID,17.7741,VALID,152,VALID,0.187891,
2014-01-20, 01:53:04,VALID,919.416,VALID,0,VALID,91.3514,VALID,0,VALID,17.7741,VALID,152,VALID,0,
2014-01-20, 01:54:04,VALID,919.421,VALID,0,VALID,91.0465,VALID,0,VALID,17.7547,VALID,152,VALID,0,
2014-01-20, 01:55:04,VALID,919.396,VALID,0,VALID,91.0998,VALID,0,VALID,17.7352,VALID,152,VALID,0,
2014-01-20, 01:56:04,VALID,919.395,VALID,0,VALID,90.6653,VALID,0,VALID,17.6767,VALID,152,VALID,0,
2014-01-20, 01:57:04,VALID,919.4,VALID,0,VALID,91.0693,VALID,0,VALID,17.6377,VALID,152,VALID,0.588672,
2014-01-20, 01:58:04,VALID,919.344,VALID,0,VALID,91.6716,VALID,0,VALID,17.6572,VALID,126,VALID,1.17578,
2014-01-20, 01:59:04,VALID,919.333,VALID,0,VALID,91.8469,VALID,0,VALID,17.7352,VALID,133,VALID,1.02227,
2014-01-20, 02:00:04,VALID,919.267,VALID,0,VALID,91.6716,VALID,0,VALID,17.7741,VALID,137,VALID,1.14297,
2014-01-20, 02:01:04,VALID,919.287,VALID,0,VALID,91.3971,VALID,0,VALID,17.7936,VALID,133,VALID,0.847266,
2014-01-20, 02:02:04,VALID,919.263,VALID,0,VALID,91.2218,VALID,0,VALID,17.8521,VALID,132,VALID,1.39805,
2014-01-20, 02:03:04,VALID,919.274,VALID,0,VALID,91.0312,VALID,0,VALID,17.8716,VALID,124,VALID,1.40508,
2014-01-20, 02:04:04,VALID,919.243,VALID,0,VALID,90.6653,VALID,0,VALID,17.8911,VALID,122,VALID,0.794922,
2014-01-20, 02:05:04,VALID,919.223,VALID,0,VALID,90.5052,VALID,0,VALID,17.8911,VALID,116,VALID,1.13398,
2014-01-20, 02:06:04,VALID,919.232,VALID,0,VALID,90.185,VALID,0,VALID,17.873,VALID,131,VALID,0.757031,
2014-01-20, 02:07:04,VALID,919.237,VALID,0,VALID,90.368,VALID,0,VALID,17.8131,VALID,109,VALID,1.04609,
2014-01-20, 02:08:04,VALID,919.201,VALID,0,VALID,90.5814,VALID,0,VALID,17.7755,VALID,133,VALID,1.30313,
2014-01-20, 02:09:04,VALID,919.235,VALID,0,VALID,90.8101,VALID,0,VALID,17.756,VALID,127,VALID,1.00586,
2014-01-20, 02:10:04,VALID,919.227,VALID,0,VALID,91.0465,VALID,0,VALID,17.678,VALID,144,VALID,0.516797,
2014-01-20, 02:11:04,VALID,919.217,VALID,0,VALID,91.2599,VALID,0,VALID,17.6585,VALID,128,VALID,0.26875,
2014-01-20, 02:12:04,VALID,919.218,VALID,0,VALID,91.359,VALID,0,VALID,17.6377,VALID,147,VALID,0.841797,
2014-01-20, 02:13:04,VALID,919.227,VALID,0,VALID,91.603,VALID,0,VALID,17.5806,VALID,155,VALID,0.903906,
2014-01-20, 02:14:04,VALID,919.194,VALID,0,VALID,91.9765,VALID,0,VALID,17.5403,VALID,157,VALID,1.00469,
2014-01-20, 02:15:04,VALID,919.218,VALID,0,VALID,92.2205,VALID,0,VALID,17.5598,VALID,158,VALID,1.22617,
2014-01-20, 02:16:04,VALID,919.174,VALID,0,VALID,92.4492,VALID,0,VALID,17.5013,VALID,158,VALID,1.32891,
2014-01-20, 02:17:04,VALID,919.174,VALID,0,VALID,92.7465,VALID,0,VALID,17.4623,VALID,165,VALID,1.01406,
2014-01-20, 02:18:04,VALID,919.18,VALID,0,VALID,93.0743,VALID,0.107441,VALID,17.422,VALID,167,VALID,1.3582,
2014-01-20, 02:19:04,VALID,919.158,VALID,0,VALID,93.3335,VALID,0.107441,VALID,17.4428,VALID,158,VALID,1.09727,
2014-01-20, 02:20:04,VALID,919.171,VALID,0,VALID,93.4783,VALID,0,VALID,17.4038,VALID,159,VALID,1.08789,
2014-01-20, 02:21:04,VALID,919.201,VALID,0,VALID,93.5774,VALID,0,VALID,17.3635,VALID,170,VALID,0.470703,
2014-01-20, 02:22:04,VALID,919.184,VALID,0,VALID,93.6994,VALID,0,VALID,17.3649,VALID,171,VALID,0.732031,
2014-01-20, 02:23:04,VALID,919.177,VALID,0,VALID,93.7985,VALID,0,VALID,17.3635,VALID,164,VALID,0.524219,
2014-01-20, 02:24:04,VALID,919.197,VALID,0,VALID,93.8595,VALID,0.107441,VALID,17.3454,VALID,184,VALID,0.964063,
2014-01-20, 02:25:04,VALID,919.182,VALID,0,VALID,94.0425,VALID,0,VALID,17.3454,VALID,174,VALID,0.646875,
2014-01-20, 02:26:04,VALID,919.188,VALID,0,VALID,94.1416,VALID,0,VALID,17.3649,VALID,164,VALID,0.882031,
2014-01-20, 02:27:04,VALID,919.18,VALID,0,VALID,94.1111,VALID,0,VALID,17.3441,VALID,162,VALID,0.508594,
2014-01-20, 02:28:04,VALID,919.158,VALID,0,VALID,94.1949,VALID,0,VALID,17.3844,VALID,165,VALID,0.639453,
2014-01-20, 02:29:04,VALID,919.163,VALID,0,VALID,94.2026,VALID,0,VALID,17.3844,VALID,152,VALID,0.744531,
2014-01-20, 02:30:04,VALID,919.152,VALID,0,VALID,94.2483,VALID,0,VALID,17.4038,VALID,159,VALID,0.674609,
2014-01-20, 02:31:04,VALID,919.203,VALID,0,VALID,94.1492,VALID,0,VALID,17.4247,VALID,168,VALID,1.00742,
2014-01-20, 02:32:04,VALID,919.209,VALID,0,VALID,94.073,VALID,0,VALID,17.4038,VALID,168,VALID,0.816797,
2014-01-20, 02:33:04,VALID,919.224,VALID,0,VALID,93.9891,VALID,0,VALID,17.4247,VALID,168,VALID,0.766406,
2014-01-20, 02:34:04,VALID,919.216,VALID,0,VALID,93.9281,VALID,0,VALID,17.4247,VALID,168,VALID,0.346484,
2014-01-20, 02:35:04,VALID,919.251,VALID,0,VALID,93.8824,VALID,0,VALID,17.4038,VALID,168,VALID,0.400781,
2014-01-20, 02:36:04,VALID,919.195,VALID,0,VALID,93.7604,VALID,0,VALID,17.3857,VALID,168,VALID,0.524219,
2014-01-20, 02:37:04,VALID,919.157,VALID,0,VALID,93.7451,VALID,0,VALID,17.3857,VALID,168,VALID,0.246484,
2014-01-20, 02:38:04,VALID,919.141,VALID,0,VALID,93.768,VALID,0,VALID,17.3259,VALID,168,VALID,0.0140625,
2014-01-20, 02:39:04,VALID,919.072,VALID,0,VALID,93.8595,VALID,0,VALID,17.3467,VALID,167,VALID,0.560547,
2014-01-20, 02:40:04,VALID,919.086,VALID,0,VALID,93.8138,VALID,0,VALID,17.3077,VALID,165,VALID,0.584375,
2014-01-20, 02:41:04,VALID,919.07,VALID,0,VALID,93.8976,VALID,0,VALID,17.2869,VALID,167,VALID,1.06641,
2014-01-20, 02:42:04,VALID,919.042,VALID,0,VALID,93.9357,VALID,0,VALID,17.2687,VALID,166,VALID,1.09961,
2014-01-20, 02:43:04,VALID,919.069,VALID,0,VALID,94.073,VALID,0,VALID,17.2882,VALID,152,VALID,0.752734,
2014-01-20, 02:44:04,VALID,919.089,VALID,0,VALID,94.1187,VALID,0,VALID,17.3467,VALID,159,VALID,1.15195,
2014-01-20, 02:45:04,VALID,919.075,VALID,0,VALID,93.8824,VALID,0,VALID,17.3454,VALID,159,VALID,0.763672,
2014-01-20, 02:46:04,VALID,919.099,VALID,0,VALID,93.8366,VALID,0,VALID,17.3441,VALID,159,VALID,0.0546875,
2014-01-20, 02:47:04,VALID,919.098,VALID,0,VALID,93.829,VALID,0,VALID,17.3454,VALID,159,VALID,0,
2014-01-20, 02:48:04,VALID,919.09,VALID,0,VALID,93.707,VALID,0,VALID,17.3454,VALID,159,VALID,0.0691406,
2014-01-20, 02:49:04,VALID,919.083,VALID,0,VALID,93.9281,VALID,0,VALID,17.3844,VALID,178,VALID,1.19609,
2014-01-20, 02:50:04,VALID,919.021,VALID,0,VALID,93.8747,VALID,0,VALID,17.4038,VALID,181,VALID,0.279297,
2014-01-20, 02:51:04,VALID,919.048,VALID,0,VALID,93.7604,VALID,0,VALID,17.4233,VALID,181,VALID,0.195703,
2014-01-20, 02:52:04,VALID,919.038,VALID,0,VALID,93.5851,VALID,0.107441,VALID,17.383,VALID,181,VALID,0.361328,
2014-01-20, 02:53:04,VALID,919.024,VALID,0,VALID,93.5698,VALID,0,VALID,17.4038,VALID,181,VALID,0.28125,
2014-01-20, 02:54:04,VALID,919.048,VALID,0,VALID,93.5622,VALID,0.107441,VALID,17.3844,VALID,187,VALID,0.376563,
2014-01-20, 02:55:04,VALID,919.032,VALID,0,VALID,93.4783,VALID,0,VALID,17.3441,VALID,187,VALID,0,
2014-01-20, 02:56:04,VALID,919.031,VALID,0,VALID,93.3792,VALID,0,VALID,17.3259,VALID,187,VALID,0,
2014-01-20, 02:57:04,VALID,919.023,VALID,0,VALID,93.5317,VALID,0.107441,VALID,17.3246,VALID,162,VALID,1.14219,
2014-01-20, 02:58:04,VALID,919,VALID,0,VALID,93.5851,VALID,0,VALID,17.3246,VALID,163,VALID,0.676953,
2014-01-20, 02:59:04,VALID,919.028,VALID,0,VALID,93.7223,VALID,0,VALID,17.3454,VALID,173,VALID,1.17813,
2014-01-20, 03:00:04,VALID,919.03,VALID,0,VALID,93.9357,VALID,0,VALID,17.3662,VALID,173,VALID,0.888281,
2014-01-20, 03:01:04,VALID,919.038,VALID,0,VALID,93.89,VALID,0,VALID,17.3272,VALID,170,VALID,0.648828,
2014-01-20, 03:02:04,VALID,919.026,VALID,0,VALID,93.9281,VALID,0,VALID,17.3259,VALID,166,VALID,1.05781,
2014-01-20, 03:03:04,VALID,919.02,VALID,0,VALID,93.9281,VALID,0,VALID,17.3454,VALID,161,VALID,0.96875,
2014-01-20, 03:04:04,VALID,919.007,VALID,0,VALID,93.9281,VALID,0,VALID,17.3064,VALID,171,VALID,1.36445,
2014-01-20, 03:05:04,VALID,919.039,VALID,0,VALID,94.0882,VALID,0,VALID,17.3467,VALID,173,VALID,0.479297,
2014-01-20, 03:06:04,VALID,918.993,VALID,0,VALID,94.0501,VALID,0,VALID,17.3077,VALID,165,VALID,1.3625,
2014-01-20, 03:07:04,VALID,919.021,VALID,0,VALID,94.0272,VALID,0,VALID,17.3077,VALID,164,VALID,1.26328,
2014-01-20, 03:08:04,VALID,919.017,VALID,0,VALID,94.0043,VALID,0,VALID,17.2687,VALID,166,VALID,0.791797,
2014-01-20, 03:09:04,VALID,919.027,VALID,0,VALID,94.0272,VALID,0,VALID,17.2103,VALID,162,VALID,1.20391,
2014-01-20, 03:10:04,VALID,919.022,VALID,0,VALID,94.2254,VALID,0,VALID,17.2298,VALID,160,VALID,1.30508,
2014-01-20, 03:11:04,VALID,919.044,VALID,0,VALID,94.2864,VALID,0,VALID,17.2103,VALID,162,VALID,1.13828,
2014-01-20, 03:12:04,VALID,919.027,VALID,0,VALID,94.4846,VALID,0,VALID,17.2298,VALID,163,VALID,1.23906,
2014-01-20, 03:13:04,VALID,918.951,VALID,0,VALID,94.538,VALID,0,VALID,17.2492,VALID,161,VALID,0.965625,
2014-01-20, 03:14:04,VALID,918.97,VALID,0,VALID,94.6218,VALID,0,VALID,17.2492,VALID,156,VALID,1.26094,
2014-01-20, 03:15:04,VALID,918.955,VALID,0,VALID,94.7591,VALID,0,VALID,17.2674,VALID,148,VALID,1.49688,
2014-01-20, 03:16:04,VALID,918.93,VALID,0,VALID,94.7819,VALID,0,VALID,17.2882,VALID,151,VALID,1.68828,
2014-01-20, 03:17:04,VALID,918.911,VALID,0,VALID,94.82,VALID,0,VALID,17.3272,VALID,166,VALID,1.48633,
2014-01-20, 03:18:04,VALID,918.883,VALID,0,VALID,94.7743,VALID,0,VALID,17.3467,VALID,157,VALID,2.09453,
2014-01-20, 03:19:04,VALID,918.923,VALID,0,VALID,94.6905,VALID,0,VALID,17.3467,VALID,145,VALID,0.793359,
2014-01-20, 03:20:04,VALID,918.919,VALID,0,VALID,94.6523,VALID,0,VALID,17.3467,VALID,152,VALID,1.51133,
2014-01-20, 03:21:04,VALID,918.904,VALID,0,VALID,94.6295,VALID,0,VALID,17.3857,VALID,148,VALID,1.31953,
2014-01-20, 03:22:04,VALID,918.88,VALID,0,VALID,94.599,VALID,0,VALID,17.3272,VALID,159,VALID,1.04766,
2014-01-20, 03:23:04,VALID,918.861,VALID,0,VALID,94.6142,VALID,0,VALID,17.3467,VALID,152,VALID,1.45977,
2014-01-20, 03:24:04,VALID,918.87,VALID,0,VALID,94.6447,VALID,0,VALID,17.3077,VALID,153,VALID,1.16094,
2014-01-20, 03:25:04,VALID,918.882,VALID,0,VALID,94.66,VALID,0,VALID,17.3077,VALID,167,VALID,1.29609,
2014-01-20, 03:26:04,VALID,918.893,VALID,0,VALID,94.6828,VALID,0,VALID,17.3077,VALID,154,VALID,1.32148,
2014-01-20, 03:27:04,VALID,918.842,VALID,0,VALID,94.7286,VALID,0,VALID,17.2882,VALID,156,VALID,1.39414,
2014-01-20, 03:28:04,VALID,918.861,VALID,0,VALID,94.7591,VALID,0,VALID,17.3077,VALID,135,VALID,1.15195,
2014-01-20, 03:29:04,VALID,918.882,VALID,0,VALID,94.7743,VALID,0,VALID,17.3077,VALID,142,VALID,1.25117,
2014-01-20, 03:30:04,VALID,918.878,VALID,0,VALID,94.7972,VALID,0.107441,VALID,17.3272,VALID,163,VALID,1.68633,
2014-01-20, 03:31:04,VALID,918.867,VALID,0,VALID,94.7819,VALID,0,VALID,17.2869,VALID,149,VALID,1.44609,
2014-01-20, 03:32:04,VALID,918.844,VALID,0,VALID,94.8124,VALID,0,VALID,17.2869,VALID,159,VALID,2.26992,
2014-01-20, 03:33:04,VALID,918.887,VALID,0,VALID,94.8658,VALID,0.107441,VALID,17.2869,VALID,177,VALID,1.57656,
2014-01-20, 03:34:04,VALID,918.866,VALID,0,VALID,94.8658,VALID,0,VALID,17.2869,VALID,170,VALID,1.9875,
2014-01-20, 03:35:04,VALID,918.846,VALID,0,VALID,94.8734,VALID,0.107441,VALID,17.2869,VALID,164,VALID,1.37383,
2014-01-20, 03:36:04,VALID,918.853,VALID,0,VALID,94.9115,VALID,0,VALID,17.3064,VALID,171,VALID,2.24219,
2014-01-20, 03:37:04,VALID,918.834,VALID,0,VALID,94.8658,VALID,0,VALID,17.2674,VALID,170,VALID,0.997656,
2014-01-20, 03:38:04,VALID,918.857,VALID,0,VALID,94.8734,VALID,0,VALID,17.2674,VALID,162,VALID,1.06914,
2014-01-20, 03:39:04,VALID,918.883,VALID,0,VALID,94.8429,VALID,0,VALID,17.2479,VALID,164,VALID,0.986328,
2014-01-20, 03:40:04,VALID,918.884,VALID,0,VALID,94.9115,VALID,0.107441,VALID,17.2674,VALID,146,VALID,1.34727,
2014-01-20, 03:41:04,VALID,918.86,VALID,0,VALID,94.9268,VALID,0,VALID,17.2674,VALID,161,VALID,1.32227,
2014-01-20, 03:42:04,VALID,918.863,VALID,0,VALID,94.9725,VALID,0.107441,VALID,17.2674,VALID,172,VALID,1.25352,
2014-01-20, 03:43:04,VALID,918.885,VALID,0,VALID,94.9954,VALID,0.107441,VALID,17.2674,VALID,154,VALID,1.50469,
2014-01-20, 03:44:04,VALID,918.891,VALID,0,VALID,94.9878,VALID,0,VALID,17.2674,VALID,171,VALID,0.890234,
2014-01-20, 03:45:04,VALID,918.915,VALID,0,VALID,94.9573,VALID,0,VALID,17.2479,VALID,149,VALID,0.646875,